Location: ??????
(38.0131°N, 23.7723°E)
Time: 05:20:10
(UTC+00:00)

Cosmos 724 - Pass Details

Date: 17 October 2021
Orbit: 857 x 938 km, 65.6° (Epoch: 28 November)

Event Time Altitude Azimuth Distance (km) Brightness Sun altitude
Rises 17:37:03 0° 332° (NNW) 3,521 7.9 -22.9°
Reaches altitude 10° 17:39:37 10° 335° (NNW) 2,564 7.1 -23.4°
Maximum altitude 17:45:31 66° 58° (ENE) 953 4.2 -24.6°
Enters shadow 17:46:09 62° 93° (E) 984 4.2 -24.7°
